�������l�o���
Date,Time,MP-1(��Sv/h),MP-2(��Sv/h),MP-3(��Sv/h),MP-4(��Sv/h),MP-5(��Sv/h),MP-6(��Sv/h),MP-7(��Sv/h),MP-8(��Sv/h),����,����(m/s),���J
2017/08/14,00:00,0.942,1.484,0.981,1.783,1.218,0.513,0.945,0.871,�k�k��,2.0,��
2017/08/14,00:10,0.945,1.483,0.982,1.784,1.218,0.512,0.945,0.871,�k�k��,1.7,��
2017/08/14,00:20,0.945,1.484,0.984,1.781,1.221,0.514,0.944,0.871,�k��,2.2,��
2017/08/14,00:30,0.942,1.484,0.983,1.784,1.220,0.515,0.944,0.873,�k��,3.0,��
2017/08/14,00:40,0.944,1.483,0.986,1.784,1.221,0.512,0.942,0.871,�k�k��,2.5,��
2017/08/14,00:50,0.942,1.484,0.983,1.784,1.220,0.515,0.944,0.873,�k�k��,3.0,��
2017/08/14,01:00,0.942,1.483,0.983,1.782,1.220,0.514,0.944,0.872,�k�k��,2.6,��
2017/08/14,01:10,0.944,1.485,0.986,1.784,1.222,0.514,0.945,0.872,�k��,3.0,��
2017/08/14,01:20,0.943,1.482,0.983,1.783,1.219,0.514,0.942,0.871,�k��,2.5,��
2017/08/14,01:30,0.944,1.484,0.983,1.783,1.220,0.514,0.945,0.872,�k�k��,3.0,��
2017/08/14,01:40,0.944,1.481,0.984,1.782,1.219,0.512,0.944,0.870,�k�k��,2.8,�L
2017/08/14,01:50,0.945,1.482,0.983,1.783,1.218,0.514,0.944,0.873,�k�k��,2.8,�L
2017/08/14,02:00,0.940,1.484,0.983,1.783,1.221,0.515,0.943,0.872,�k�k��,2.8,�L
2017/08/14,02:10,0.944,1.486,0.983,1.781,1.220,0.513,0.944,0.870,�k�k��,2.9,�L
2017/08/14,02:20,0.942,1.483,0.984,1.784,1.219,0.515,0.942,0.870,�k�k��,3.0,�L
2017/08/14,02:30,0.942,1.485,0.982,1.785,1.220,0.515,0.943,0.871,�k�k��,3.6,�L
2017/08/14,02:40,0.943,1.483,0.982,1.783,1.221,0.512,0.943,0.870,�k�k��,2.8,�L
2017/08/14,02:50,0.942,1.482,0.984,1.781,1.218,0.513,0.942,0.869,�k�k��,2.3,�L
2017/08/14,03:00,0.943,1.481,0.983,1.781,1.219,0.514,0.943,0.870,�k�k��,2.9,�L
2017/08/14,03:10,0.941,1.482,0.982,1.780,1.220,0.511,0.943,0.870,�k�k��,2.9,�L
2017/08/14,03:20,0.942,1.480,0.985,1.780,1.218,0.514,0.944,0.871,�k�k��,2.6,�L
2017/08/14,03:30,0.941,1.481,0.984,1.783,1.222,0.512,0.942,0.869,�k�k��,2.8,�L
2017/08/14,03:40,0.944,1.484,0.983,1.781,1.218,0.515,0.942,0.870,�k�k��,2.6,��
2017/08/14,03:50,0.941,1.482,0.984,1.784,1.217,0.515,0.943,0.871,�k�k��,2.6,��
2017/08/14,04:00,0.943,1.483,0.985,1.780,1.221,0.515,0.945,0.870,�k�k��,2.5,��
2017/08/14,04:10,0.943,1.483,0.988,1.782,1.217,0.514,0.942,0.869,�k�k��,2.6,�L
2017/08/14,04:20,0.942,1.483,0.983,1.782,1.218,0.513,0.943,0.868,�k�k��,3.0,��
2017/08/14,04:30,0.939,1.481,0.985,1.779,1.218,0.514,0.943,0.870,�k�k��,2.8,��
2017/08/14,04:40,0.942,1.480,0.984,1.781,1.218,0.513,0.942,0.870,�k�k��,2.8,��
2017/08/14,04:50,0.941,1.482,0.984,1.780,1.220,0.514,0.943,0.870,�k�k��,2.5,��
2017/08/14,05:00,0.941,1.485,0.985,1.782,1.219,0.513,0.943,0.870,�k,2.8,�L
2017/08/14,05:10,0.941,1.484,0.983,1.783,1.221,0.513,0.944,0.871,�k,2.8,��
2017/08/14,05:20,0.940,1.480,0.983,1.780,1.219,0.514,0.943,0.871,�k�k��,3.1,��
2017/08/14,05:30,0.942,1.481,0.984,1.781,1.221,0.512,0.943,0.870,�k,2.5,�L
2017/08/14,05:40,0.942,1.480,0.982,1.780,1.217,0.513,0.943,0.871,�k,3.7,�L
2017/08/14,05:50,0.942,1.481,0.981,1.779,1.217,0.514,0.942,0.870,�k,3.0,�L
2017/08/14,06:00,0.941,1.482,0.982,1.784,1.219,0.513,0.944,0.868,�k,2.6,�L
2017/08/14,06:10,0.943,1.481,0.984,1.784,1.219,0.511,0.943,0.869,�k,2.0,�L
2017/08/14,06:20,0.942,1.483,0.983,1.781,1.217,0.513,0.945,0.871,�k,2.2,�L
2017/08/14,06:30,0.941,1.480,0.984,1.782,1.219,0.513,0.942,0.870,�k�k��,2.3,�L
2017/08/14,06:40,0.938,1.481,0.984,1.783,1.218,0.514,0.942,0.871,�k,2.3,�L
2017/08/14,06:50,0.938,1.477,0.982,1.783,1.220,0.512,0.944,0.871,�k,2.2,�L
2017/08/14,07:00,0.936,1.475,0.983,1.782,1.215,0.514,0.944,0.870,�k,1.5,�L
2017/08/14,07:10,0.935,1.475,0.981,1.781,1.218,0.512,0.943,0.869,�k�k��,1.2,�L
2017/08/14,07:20,0.935,1.472,0.982,1.777,1.215,0.513,0.943,0.868,�k�k��,1.4,�L
2017/08/14,07:30,0.934,1.469,0.977,1.773,1.212,0.513,0.941,0.869,�k�k��,1.2,�L
2017/08/14,07:40,0.933,1.469,0.976,1.772,1.210,0.514,0.940,0.868,�k�k��,1.9,�L
2017/08/14,07:50,0.933,1.466,0.977,1.772,1.210,0.512,0.940,0.868,�k,1.9,�L
2017/08/14,08:00,0.931,1.462,0.974,1.771,1.209,0.512,0.940,0.867,�k,1.4,�L
2017/08/14,08:10,0.930,1.461,0.975,1.770,1.207,0.513,0.937,0.866,�k�k��,1.4,�L
2017/08/14,08:20,0.929,1.459,0.973,1.767,1.205,0.512,0.938,0.865,�k��,1.2,�L
2017/08/14,08:30,0.928,1.459,0.972,1.766,1.200,0.510,0.938,0.864,�k��,1.5,�L
2017/08/14,08:40,0.929,1.456,0.971,1.758,1.199,0.510,0.935,0.865,�k��,1.7,�L
2017/08/14,08:50,0.926,1.455,0.972,1.761,1.199,0.509,0.936,0.866,�k��,1.5,�L
2017/08/14,09:00,0.925,1.453,0.969,1.763,1.197,0.509,0.935,0.866,���k��,1.2,�L
2017/08/14,09:10,0.924,1.453,0.970,1.760,1.199,0.511,0.936,0.865,���쓌,1.2,�L
2017/08/14,09:20,0.928,1.455,0.970,1.759,1.199,0.510,0.937,0.864,���k��,0.6,�L
2017/08/14,09:30,0.927,1.455,0.970,1.762,1.200,0.511,0.937,0.868,���k��,0.9,�L
2017/08/14,09:40,0.925,1.455,0.971,1.762,1.200,0.511,0.936,0.865,��,0.9,�L
2017/08/14,09:50,0.926,1.457,0.971,1.765,1.200,0.511,0.937,0.866,���k��,0.8,�L
2017/08/14,10:00,0.928,1.452,0.974,1.762,1.201,0.510,0.938,0.865,��,1.1,��
2017/08/14,10:10,0.927,1.456,0.971,1.762,1.200,0.510,0.940,0.864,���k��,1.2,��
2017/08/14,10:20,0.927,1.458,0.973,1.763,1.202,0.510,0.937,0.867,�k�k��,1.4,�L
2017/08/14,10:30,0.926,1.456,0.972,1.764,1.202,0.511,0.938,0.864,��,1.5,�L
2017/08/14,10:40,0.928,1.455,0.972,1.761,1.205,0.509,0.937,0.862,���k��,1.5,�L
2017/08/14,10:50,0.929,1.457,0.970,1.763,1.204,0.509,0.940,0.865,���k��,1.7,�L
2017/08/14,11:00,0.928,1.460,0.972,1.761,1.204,0.511,0.938,0.865,���k��,1.7,�L
2017/08/14,11:10,0.928,1.458,0.973,1.764,1.202,0.509,0.939,0.865,�k��,2.2,�L
2017/08/14,11:20,0.930,1.460,0.974,1.764,1.205,0.510,0.938,0.865,���k��,1.9,�L
2017/08/14,11:30,0.930,1.457,0.975,1.765,1.202,0.511,0.939,0.865,�k��,2.3,�L
2017/08/14,11:40,0.927,1.463,0.975,1.763,1.207,0.511,0.940,0.865,���k��,2.0,�L
2017/08/14,11:50,0.928,1.462,0.974,1.767,1.208,0.511,0.938,0.866,�k��,2.0,�L
2017/08/14,12:00,0.932,1.460,0.975,1.763,1.204,0.508,0.939,0.864,�k��,2.5,��
2017/08/14,12:10,0.931,1.462,0.973,1.766,1.206,0.511,0.940,0.866,�k��,2.6,��
2017/08/14,12:20,0.930,1.462,0.973,1.767,1.206,0.510,0.941,0.865,�k��,2.6,��
2017/08/14,12:30,0.932,1.461,0.974,1.766,1.204,0.511,0.940,0.866,�k��,2.9,�L
2017/08/14,12:40,0.933,1.462,0.970,1.766,1.206,0.512,0.942,0.864,�k��,2.8,�L
2017/08/14,12:50,0.933,1.464,0.972,1.765,1.207,0.512,0.940,0.867,�k��,3.0,��
2017/08/14,13:00,0.934,1.462,0.971,1.765,1.204,0.511,0.941,0.867,�k��,2.9,��
2017/08/14,13:10,0.936,1.465,0.974,1.767,1.209,0.511,0.940,0.865,�k��,2.9,��
2017/08/14,13:20,0.931,1.464,0.973,1.767,1.208,0.510,0.942,0.866,�k��,2.6,�L
2017/08/14,13:30,0.934,1.467,0.973,1.764,1.208,0.510,0.943,0.868,�k��,2.8,�L
2017/08/14,13:40,0.935,1.465,0.974,1.768,1.208,0.511,0.943,0.868,�k��,2.8,�L
2017/08/14,13:50,0.933,1.465,0.974,1.770,1.208,0.511,0.942,0.867,�k��,3.4,�L
2017/08/14,14:00,0.933,1.471,0.974,1.767,1.209,0.511,0.942,0.866,�k��,3.2,�L
2017/08/14,14:10,0.935,1.470,0.974,1.770,1.208,0.512,0.943,0.867,�k�k��,3.0,�L
2017/08/14,14:20,0.936,1.471,0.975,1.767,1.206,0.512,0.943,0.866,�k��,2.6,�L
2017/08/14,14:30,0.935,1.470,0.977,1.768,1.207,0.511,0.942,0.867,�k��,2.3,�L
2017/08/14,14:40,0.936,1.472,0.978,1.769,1.206,0.513,0.942,0.865,�k�k��,2.9,�L
2017/08/14,14:50,0.935,1.465,0.976,1.769,1.207,0.511,0.941,0.866,�k��,3.1,�L
2017/08/14,15:00,0.936,1.470,0.976,1.772,1.204,0.510,0.943,0.867,�k�k��,3.1,�L
2017/08/14,15:10,0.935,1.469,0.976,1.769,1.206,0.513,0.941,0.865,�k��,2.8,�L
2017/08/14,15:20,0.935,1.470,0.975,1.771,1.207,0.512,0.941,0.867,�k��,2.5,�L
2017/08/14,15:30,0.933,1.468,0.975,1.767,1.206,0.511,0.942,0.866,�k��,3.0,�L
2017/08/14,15:40,0.931,1.464,0.974,1.770,1.205,0.512,0.941,0.866,�k��,3.2,�L
2017/08/14,15:50,0.931,1.462,0.971,1.767,1.204,0.512,0.941,0.866,�k��,3.7,�L
2017/08/14,16:00,0.925,1.449,0.970,1.763,1.200,0.513,0.938,0.867,���k��,3.4,�L
2017/08/14,16:10,0.919,1.435,0.964,1.754,1.195,0.510,0.938,0.867,�k��,3.5,�L
2017/08/14,16:20,0.920,1.435,0.964,1.752,1.194,0.511,0.939,0.866,�k�k��,3.0,�L
2017/08/14,16:30,0.918,1.436,0.962,1.745,1.187,0.510,0.937,0.863,�k��,2.2,�L
2017/08/14,16:40,0.919,1.436,0.962,1.734,1.175,0.510,0.931,0.860,�k�k��,1.2,�L
2017/08/14,16:50,0.915,1.431,0.959,1.732,1.175,0.507,0.926,0.859,��,2.0,�L
2017/08/14,17:00,0.913,1.426,0.956,1.725,1.175,0.507,0.928,0.858,�k,2.2,�L
2017/08/14,17:10,0.914,1.427,0.956,1.724,1.176,0.507,0.926,0.857,���k��,2.9,�L
2017/08/14,17:20,0.917,1.431,0.958,1.726,1.179,0.507,0.926,0.856,�k��,2.5,�L
2017/08/14,17:30,0.918,1.433,0.958,1.728,1.179,0.507,0.927,0.857,���k��,2.0,�L
2017/08/14,17:40,0.920,1.434,0.960,1.731,1.179,0.508,0.928,0.858,���k��,2.0,�L
2017/08/14,17:50,0.920,1.437,0.959,1.733,1.181,0.508,0.930,0.858,��,2.6,�L
2017/08/14,18:00,0.919,1.436,0.959,1.732,1.181,0.506,0.926,0.858,��,2.2,�L
2017/08/14,18:10,0.922,1.436,0.958,1.733,1.183,0.507,0.928,0.859,�쓌,2.3,��
2017/08/14,18:20,0.920,1.440,0.960,1.736,1.184,0.507,0.928,0.859,�쓌,0.6,��
2017/08/14,18:30,0.919,1.441,0.960,1.737,1.181,0.507,0.929,0.856,�쓌,0.9,��
2017/08/14,18:40,0.920,1.441,0.961,1.736,1.183,0.506,0.929,0.857,��쓌,1.2,��
2017/08/14,18:50,0.921,1.444,0.961,1.738,1.181,0.507,0.928,0.857,��쓌,1.1,��
2017/08/14,19:00,0.919,1.444,0.958,1.737,1.182,0.507,0.928,0.859,�쓌,1.2,��
2017/08/14,19:10,0.921,1.441,0.960,1.738,1.183,0.507,0.929,0.862,��쓌,0.8,��
2017/08/14,19:20,0.922,1.443,0.962,1.736,1.184,0.509,0.929,0.861,-,CALM,��
2017/08/14,19:30,0.919,1.446,0.961,1.737,1.185,0.509,0.928,0.860,-,CALM,��
2017/08/14,19:40,0.922,1.444,0.961,1.738,1.181,0.508,0.931,0.860,��,0.6,��
2017/08/14,19:50,0.924,1.444,0.963,1.738,1.187,0.508,0.929,0.863,-,CALM,��
2017/08/14,20:00,0.923,1.444,0.964,1.739,1.186,0.509,0.930,0.860,�k��,0.9,��
2017/08/14,20:10,0.925,1.443,0.963,1.739,1.187,0.507,0.931,0.863,�k�k��,0.8,��
2017/08/14,20:20,0.925,1.445,0.962,1.738,1.186,0.508,0.931,0.863,�k��,1.7,��
2017/08/14,20:30,0.925,1.447,0.963,1.742,1.188,0.507,0.930,0.861,�k��,1.4,��
2017/08/14,20:40,0.923,1.447,0.961,1.738,1.187,0.508,0.932,0.862,�k�k��,0.6,��
2017/08/14,20:50,0.925,1.447,0.960,1.740,1.190,0.507,0.929,0.862,���k��,1.2,�L
2017/08/14,21:00,0.924,1.447,0.963,1.741,1.188,0.509,0.930,0.863,�k�k��,1.2,��
2017/08/14,21:10,0.923,1.445,0.964,1.741,1.190,0.507,0.933,0.863,�k��,1.2,��
2017/08/14,21:20,0.926,1.446,0.963,1.739,1.189,0.508,0.931,0.863,�k��,1.7,��
2017/08/14,21:30,0.925,1.449,0.962,1.743,1.191,0.510,0.931,0.861,�k��,1.9,�L
2017/08/14,21:40,0.926,1.449,0.964,1.744,1.190,0.508,0.931,0.860,�k��,1.5,��
2017/08/14,21:50,0.926,1.446,0.963,1.742,1.192,0.508,0.930,0.862,�k��,1.4,��
2017/08/14,22:00,0.925,1.449,0.964,1.742,1.189,0.508,0.932,0.860,�k�k��,0.6,��
2017/08/14,22:10,0.926,1.449,0.965,1.743,1.188,0.510,0.930,0.863,�k�k��,0.9,��
2017/08/14,22:20,0.926,1.450,0.965,1.743,1.190,0.509,0.932,0.862,-,CALM,��
2017/08/14,22:30,0.925,1.448,0.964,1.742,1.190,0.507,0.930,0.862,�k�k��,0.9,��
2017/08/14,22:40,0.928,1.449,0.963,1.744,1.191,0.509,0.932,0.863,�k�k��,1.4,��
2017/08/14,22:50,0.926,1.449,0.967,1.743,1.191,0.510,0.931,0.864,�k�k��,1.7,��
2017/08/14,23:00,0.927,1.451,0.963,1.748,1.192,0.510,0.931,0.862,�k�k��,1.7,��
2017/08/14,23:10,0.928,1.450,0.964,1.746,1.193,0.508,0.931,0.861,�k,0.9,��
2017/08/14,23:20,0.927,1.449,0.964,1.745,1.193,0.508,0.932,0.862,�k,1.5,��
2017/08/14,23:30,0.926,1.449,0.964,1.745,1.191,0.509,0.932,0.863,�k�k��,1.4,��
2017/08/14,23:40,0.927,1.451,0.965,1.746,1.192,0.509,0.931,0.862,�k�k��,2.0,��
2017/08/14,23:50,0.928,1.453,0.964,1.745,1.192,0.509,0.932,0.863,�k�k��,2.0,��
